contact:dominique.lefevre@mio.osupytheas.fr, maurice.libes@osupytheas.fr, didier.mallarino@osupytheas.fr
Project:EMSO http://www.emso-fr.org/EMSO-France
Depth: 2436.0 m
Title:EMSO Ligure Ouest : Data MII capteur OXYGEN
DateTime,Latitude,Longitude,Optode-Type,Optode_Serial,Oxygen,Saturation_Oxygen,Temperature
DateTime,Latitude,Longitude,Optode-Type,Optode_Serial,µmol.l-1,%,degC
2017-11-25T00:00:59,42.805,6.029,4330,1995,196.417,60.065,13.286
2017-11-25T00:03:59,42.805,6.029,4330,1995,196.379,60.053,13.286
2017-11-25T00:06:59,42.805,6.029,4330,1995,196.386,60.056,13.287
2017-11-25T00:09:59,42.805,6.029,4330,1995,196.373,60.051,13.286
2017-11-25T00:12:59,42.805,6.029,4330,1995,196.278,60.022,13.286
2017-11-25T00:15:59,42.805,6.029,4330,1995,196.340,60.041,13.286
2017-11-25T00:18:59,42.805,6.029,4330,1995,196.390,60.057,13.286
2017-11-25T00:21:59,42.805,6.029,4330,1995,196.322,60.036,13.287
2017-11-25T00:24:59,42.805,6.029,4330,1995,196.354,60.046,13.286
2017-11-25T00:27:59,42.805,6.029,4330,1995,196.442,60.072,13.286
2017-11-25T00:30:59,42.805,6.029,4330,1995,196.393,60.057,13.286
2017-11-25T00:33:59,42.805,6.029,4330,1995,196.265,60.018,13.286
2017-11-25T00:36:59,42.805,6.029,4330,1995,196.352,60.045,13.286
2017-11-25T00:39:59,42.805,6.029,4330,1995,196.328,60.038,13.287
2017-11-25T00:42:59,42.805,6.029,4330,1995,196.308,60.032,13.286
2017-11-25T00:45:59,42.805,6.029,4330,1995,196.296,60.028,13.286
2017-11-25T00:48:59,42.805,6.029,4330,1995,196.274,60.021,13.286
2017-11-25T00:51:59,42.805,6.029,4330,1995,196.270,60.020,13.287
2017-11-25T00:54:59,42.805,6.029,4330,1995,196.339,60.041,13.286
2017-11-25T00:57:59,42.805,6.029,4330,1995,196.346,60.043,13.286
2017-11-25T01:00:59,42.805,6.029,4330,1995,196.388,60.056,13.286
2017-11-25T01:03:59,42.805,6.029,4330,1995,196.397,60.059,13.286
2017-11-25T01:06:59,42.805,6.029,4330,1995,196.338,60.041,13.286
2017-11-25T01:09:59,42.805,6.029,4330,1995,196.404,60.061,13.286
2017-11-25T01:12:59,42.805,6.029,4330,1995,196.428,60.068,13.286
2017-11-25T01:15:59,42.805,6.029,4330,1995,196.388,60.056,13.286
2017-11-25T01:18:59,42.805,6.029,4330,1995,196.463,60.079,13.286
2017-11-25T01:21:59,42.805,6.029,4330,1995,196.423,60.067,13.286
2017-11-25T01:24:59,42.805,6.029,4330,1995,196.427,60.068,13.286
2017-11-25T01:27:59,42.805,6.029,4330,1995,196.503,60.091,13.286
2017-11-25T01:30:59,42.805,6.029,4330,1995,196.502,60.091,13.286
2017-11-25T01:33:59,42.805,6.029,4330,1995,196.487,60.086,13.286
2017-11-25T01:36:59,42.805,6.029,4330,1995,196.516,60.095,13.286
2017-11-25T01:39:59,42.805,6.029,4330,1995,196.540,60.103,13.286
2017-11-25T01:42:59,42.805,6.029,4330,1995,196.540,60.102,13.286
2017-11-25T01:45:59,42.805,6.029,4330,1995,196.519,60.096,13.286
2017-11-25T01:48:59,42.805,6.029,4330,1995,196.533,60.100,13.286
2017-11-25T01:51:59,42.805,6.029,4330,1995,196.560,60.109,13.286
2017-11-25T01:54:59,42.805,6.029,4330,1995,196.578,60.114,13.286
2017-11-25T01:57:59,42.805,6.029,4330,1995,196.571,60.112,13.286
2017-11-25T02:00:59,42.805,6.029,4330,1995,196.567,60.111,13.286
2017-11-25T02:03:59,42.805,6.029,4330,1995,196.549,60.106,13.287
2017-11-25T02:06:59,42.805,6.029,4330,1995,196.523,60.098,13.286
2017-11-25T02:09:59,42.805,6.029,4330,1995,196.556,60.107,13.286
2017-11-25T02:12:59,42.805,6.029,4330,1995,196.553,60.106,13.286
2017-11-25T02:15:59,42.805,6.029,4330,1995,196.611,60.124,13.286
2017-11-25T02:18:59,42.805,6.029,4330,1995,196.610,60.124,13.286
2017-11-25T02:21:59,42.805,6.029,4330,1995,196.598,60.120,13.286
2017-11-25T02:24:59,42.805,6.029,4330,1995,196.535,60.100,13.286
2017-11-25T02:27:59,42.805,6.029,4330,1995,196.581,60.115,13.287
2017-11-25T02:30:59,42.805,6.029,4330,1995,196.608,60.123,13.286
2017-11-25T02:33:59,42.805,6.029,4330,1995,196.641,60.133,13.286
2017-11-25T02:36:59,42.805,6.029,4330,1995,196.653,60.137,13.286
2017-11-25T02:39:59,42.805,6.029,4330,1995,196.638,60.133,13.287
2017-11-25T02:42:59,42.805,6.029,4330,1995,196.699,60.151,13.286
2017-11-25T02:45:59,42.805,6.029,4330,1995,196.641,60.133,13.286
2017-11-25T02:48:59,42.805,6.029,4330,1995,196.662,60.140,13.286
2017-11-25T02:51:59,42.805,6.029,4330,1995,196.664,60.140,13.286
2017-11-25T02:54:59,42.805,6.029,4330,1995,196.624,60.128,13.286
2017-11-25T02:57:59,42.805,6.029,4330,1995,196.665,60.141,13.286
2017-11-25T03:00:59,42.805,6.029,4330,1995,196.677,60.144,13.286
2017-11-25T03:03:59,42.805,6.029,4330,1995,196.698,60.151,13.286
2017-11-25T03:06:59,42.805,6.029,4330,1995,196.715,60.156,13.286
2017-11-25T03:09:59,42.805,6.029,4330,1995,196.702,60.152,13.286
2017-11-25T03:12:59,42.805,6.029,4330,1995,196.693,60.149,13.286
2017-11-25T03:15:59,42.805,6.029,4330,1995,196.657,60.138,13.286
2017-11-25T03:18:59,42.805,6.029,4330,1995,196.700,60.151,13.286
2017-11-25T03:21:59,42.805,6.029,4330,1995,196.785,60.177,13.286
2017-11-25T03:24:59,42.805,6.029,4330,1995,196.727,60.160,13.286
2017-11-25T03:27:59,42.805,6.029,4330,1995,196.690,60.148,13.286
2017-11-25T03:30:59,42.805,6.029,4330,1995,196.653,60.137,13.286
2017-11-25T03:33:59,42.805,6.029,4330,1995,196.725,60.159,13.286
2017-11-25T03:36:59,42.805,6.029,4330,1995,196.752,60.167,13.286
2017-11-25T03:39:59,42.805,6.029,4330,1995,196.727,60.159,13.286
2017-11-25T03:42:59,42.805,6.029,4330,1995,196.747,60.166,13.286
2017-11-25T03:45:59,42.805,6.029,4330,1995,196.743,60.164,13.286
2017-11-25T03:48:59,42.805,6.029,4330,1995,196.653,60.137,13.286
2017-11-25T03:51:59,42.805,6.029,4330,1995,196.712,60.155,13.286
2017-11-25T03:54:59,42.805,6.029,4330,1995,196.746,60.165,13.286
2017-11-25T03:57:59,42.805,6.029,4330,1995,196.796,60.181,13.286
2017-11-25T04:00:59,42.805,6.029,4330,1995,196.783,60.177,13.286
2017-11-25T04:03:59,42.805,6.029,4330,1995,196.802,60.182,13.286
2017-11-25T04:06:59,42.805,6.029,4330,1995,196.811,60.185,13.286
2017-11-25T04:09:59,42.805,6.029,4330,1995,196.852,60.198,13.286
2017-11-25T04:12:59,42.805,6.029,4330,1995,196.898,60.211,13.286
2017-11-25T04:15:59,42.805,6.029,4330,1995,196.848,60.196,13.286
2017-11-25T04:18:59,42.805,6.029,4330,1995,196.827,60.190,13.286
2017-11-25T04:21:59,42.805,6.029,4330,1995,196.806,60.184,13.286
2017-11-25T04:24:59,42.805,6.029,4330,1995,196.856,60.199,13.286
2017-11-25T04:27:59,42.805,6.029,4330,1995,196.897,60.211,13.286
2017-11-25T04:30:59,42.805,6.029,4330,1995,196.839,60.193,13.286
2017-11-25T04:33:59,42.805,6.029,4330,1995,196.905,60.214,13.286
2017-11-25T04:36:59,42.805,6.029,4330,1995,196.905,60.214,13.286
2017-11-25T04:39:59,42.805,6.029,4330,1995,196.927,60.220,13.286
2017-11-25T04:42:59,42.805,6.029,4330,1995,196.927,60.220,13.286
2017-11-25T04:45:59,42.805,6.029,4330,1995,197.015,60.248,13.286
2017-11-25T04:48:59,42.805,6.029,4330,1995,196.932,60.222,13.286
2017-11-25T04:51:59,42.805,6.029,4330,1995,196.964,60.232,13.286
2017-11-25T04:54:59,42.805,6.029,4330,1995,196.929,60.221,13.286
2017-11-25T04:57:59,42.805,6.029,4330,1995,196.969,60.233,13.286
2017-11-25T05:00:59,42.805,6.029,4330,1995,197.052,60.259,13.286
2017-11-25T05:03:59,42.805,6.029,4330,1995,197.031,60.252,13.286
2017-11-25T05:06:59,42.805,6.029,4330,1995,197.019,60.249,13.286
2017-11-25T05:09:59,42.805,6.029,4330,1995,196.967,60.233,13.286
2017-11-25T05:12:59,42.805,6.029,4330,1995,197.021,60.249,13.286
2017-11-25T05:15:59,42.805,6.029,4330,1995,197.016,60.248,13.286
2017-11-25T05:18:59,42.805,6.029,4330,1995,197.033,60.253,13.286
2017-11-25T05:21:59,42.805,6.029,4330,1995,197.070,60.264,13.286
2017-11-25T05:24:59,42.805,6.029,4330,1995,197.138,60.285,13.286
2017-11-25T05:27:59,42.805,6.029,4330,1995,197.109,60.276,13.286
2017-11-25T05:30:59,42.805,6.029,4330,1995,197.124,60.281,13.286
2017-11-25T05:33:59,42.805,6.029,4330,1995,197.054,60.259,13.286
2017-11-25T05:36:59,42.805,6.029,4330,1995,197.082,60.268,13.286
2017-11-25T05:39:59,42.805,6.029,4330,1995,197.073,60.265,13.286
2017-11-25T05:42:59,42.805,6.029,4330,1995,197.117,60.278,13.286
2017-11-25T05:45:59,42.805,6.029,4330,1995,197.066,60.263,13.286
2017-11-25T05:48:59,42.805,6.029,4330,1995,197.076,60.266,13.286
2017-11-25T05:51:59,42.805,6.029,4330,1995,197.091,60.271,13.286
2017-11-25T05:54:59,42.805,6.029,4330,1995,197.126,60.281,13.286
2017-11-25T05:57:59,42.805,6.029,4330,1995,197.094,60.272,13.286
2017-11-25T06:00:59,42.805,6.029,4330,1995,197.116,60.278,13.286
2017-11-25T06:03:59,42.805,6.029,4330,1995,197.058,60.261,13.286
2017-11-25T06:06:59,42.805,6.029,4330,1995,197.133,60.284,13.286
2017-11-25T06:09:59,42.805,6.029,4330,1995,197.104,60.274,13.286
2017-11-25T06:12:59,42.805,6.029,4330,1995,197.101,60.274,13.286
2017-11-25T06:15:59,42.805,6.029,4330,1995,197.002,60.244,13.286
2017-11-25T06:18:59,42.805,6.029,4330,1995,197.088,60.270,13.286
2017-11-25T06:21:59,42.805,6.029,4330,1995,197.063,60.262,13.286
2017-11-25T06:24:59,42.805,6.029,4330,1995,197.074,60.266,13.286
2017-11-25T06:27:59,42.805,6.029,4330,1995,197.092,60.271,13.286
2017-11-25T06:30:59,42.805,6.029,4330,1995,197.047,60.257,13.286
2017-11-25T06:33:59,42.805,6.029,4330,1995,197.094,60.272,13.286
2017-11-25T06:36:59,42.805,6.029,4330,1995,197.074,60.265,13.286
2017-11-25T06:39:59,42.805,6.029,4330,1995,197.115,60.278,13.286
2017-11-25T06:42:59,42.805,6.029,4330,1995,197.022,60.250,13.286
2017-11-25T06:45:59,42.805,6.029,4330,1995,197.090,60.270,13.286
2017-11-25T06:48:59,42.805,6.029,4330,1995,197.049,60.258,13.286
2017-11-25T06:51:59,42.805,6.029,4330,1995,197.182,60.298,13.286
2017-11-25T06:54:59,42.805,6.029,4330,1995,197.142,60.286,13.286
2017-11-25T06:57:59,42.805,6.029,4330,1995,197.087,60.269,13.286
2017-11-25T07:00:59,42.805,6.029,4330,1995,197.045,60.256,13.286
2017-11-25T07:03:59,42.805,6.029,4330,1995,197.149,60.288,13.286
2017-11-25T07:06:59,42.805,6.029,4330,1995,197.214,60.308,13.286
2017-11-25T07:09:59,42.805,6.029,4330,1995,197.105,60.275,13.286
2017-11-25T07:12:59,42.805,6.029,4330,1995,197.227,60.312,13.286
2017-11-25T07:15:59,42.805,6.029,4330,1995,197.248,60.318,13.286
2017-11-25T07:18:59,42.805,6.029,4330,1995,197.166,60.293,13.286
2017-11-25T07:21:59,42.805,6.029,4330,1995,197.100,60.273,13.286
2017-11-25T07:24:59,42.805,6.029,4330,1995,197.107,60.275,13.286
2017-11-25T07:27:59,42.805,6.029,4330,1995,197.087,60.269,13.286
2017-11-25T07:30:59,42.805,6.029,4330,1995,197.115,60.278,13.286
2017-11-25T07:33:59,42.805,6.029,4330,1995,197.148,60.288,13.286
2017-11-25T07:36:59,42.805,6.029,4330,1995,197.135,60.284,13.286
2017-11-25T07:39:59,42.805,6.029,4330,1995,197.146,60.287,13.286
2017-11-25T07:42:59,42.805,6.029,4330,1995,197.115,60.278,13.286
2017-11-25T07:45:59,42.805,6.029,4330,1995,197.176,60.296,13.286
2017-11-25T07:48:59,42.805,6.029,4330,1995,197.180,60.298,13.286
2017-11-25T07:51:59,42.805,6.029,4330,1995,197.068,60.263,13.286
2017-11-25T07:54:59,42.805,6.029,4330,1995,197.086,60.269,13.286
2017-11-25T07:57:59,42.805,6.029,4330,1995,197.009,60.246,13.286
2017-11-25T08:00:59,42.805,6.029,4330,1995,197.046,60.257,13.286
2017-11-25T08:03:59,42.805,6.029,4330,1995,197.070,60.264,13.286
2017-11-25T08:06:59,42.805,6.029,4330,1995,197.093,60.271,13.286
2017-11-25T08:09:59,42.805,6.029,4330,1995,196.955,60.229,13.286
2017-11-25T08:12:59,42.805,6.029,4330,1995,196.981,60.237,13.286
2017-11-25T08:15:59,42.805,6.029,4330,1995,197.032,60.252,13.286
2017-11-25T08:18:59,42.805,6.029,4330,1995,197.016,60.247,13.286
2017-11-25T08:21:59,42.805,6.029,4330,1995,197.015,60.248,13.286
2017-11-25T08:24:59,42.805,6.029,4330,1995,196.914,60.216,13.286
2017-11-25T08:27:59,42.805,6.029,4330,1995,196.882,60.207,13.286
2017-11-25T08:30:59,42.805,6.029,4330,1995,196.941,60.225,13.286
2017-11-25T08:33:59,42.805,6.029,4330,1995,197.030,60.252,13.286
2017-11-25T08:36:59,42.805,6.029,4330,1995,197.077,60.266,13.286
2017-11-25T08:39:59,42.805,6.029,4330,1995,196.987,60.239,13.286
2017-11-25T08:42:59,42.805,6.029,4330,1995,196.946,60.226,13.286
2017-11-25T08:45:59,42.805,6.029,4330,1995,197.021,60.249,13.286
2017-11-25T08:48:59,42.805,6.029,4330,1995,196.909,60.215,13.286
2017-11-25T08:51:59,42.805,6.029,4330,1995,196.805,60.183,13.286
2017-11-25T08:54:59,42.805,6.029,4330,1995,196.792,60.179,13.286
2017-11-25T08:57:59,42.805,6.029,4330,1995,196.702,60.152,13.286
2017-11-25T09:00:59,42.805,6.029,4330,1995,196.636,60.132,13.286
2017-11-25T09:03:59,42.805,6.029,4330,1995,196.587,60.117,13.286
2017-11-25T09:06:59,42.805,6.029,4330,1995,196.610,60.124,13.286
2017-11-25T09:09:59,42.805,6.029,4330,1995,196.697,60.150,13.286
2017-11-25T09:12:59,42.805,6.029,4330,1995,196.637,60.132,13.286
2017-11-25T09:15:59,42.805,6.029,4330,1995,196.595,60.119,13.286
2017-11-25T09:18:59,42.805,6.029,4330,1995,196.724,60.158,13.286
2017-11-25T09:21:59,42.805,6.029,4330,1995,196.685,60.147,13.286
2017-11-25T09:24:59,42.805,6.029,4330,1995,196.611,60.124,13.286
2017-11-25T09:27:59,42.805,6.029,4330,1995,196.545,60.104,13.286
2017-11-25T09:30:59,42.805,6.029,4330,1995,196.513,60.094,13.286
2017-11-25T09:33:59,42.805,6.029,4330,1995,196.478,60.083,13.286
2017-11-25T09:36:59,42.805,6.029,4330,1995,196.580,60.114,13.286
2017-11-25T09:39:59,42.805,6.029,4330,1995,196.629,60.129,13.286
2017-11-25T09:42:59,42.805,6.029,4330,1995,196.579,60.115,13.286
2017-11-25T09:45:59,42.805,6.029,4330,1995,196.508,60.093,13.287
2017-11-25T09:48:59,42.805,6.029,4330,1995,196.453,60.076,13.286
2017-11-25T09:51:59,42.805,6.029,4330,1995,196.445,60.074,13.287
2017-11-25T09:54:59,42.805,6.029,4330,1995,196.493,60.088,13.286
2017-11-25T09:57:59,42.805,6.029,4330,1995,196.502,60.091,13.286
2017-11-25T10:00:59,42.805,6.029,4330,1995,196.423,60.067,13.286
2017-11-25T10:03:59,42.805,6.029,4330,1995,196.406,60.061,13.286
2017-11-25T10:06:59,42.805,6.029,4330,1995,196.538,60.102,13.287
2017-11-25T10:09:59,42.805,6.029,4330,1995,196.512,60.094,13.287
2017-11-25T10:12:59,42.805,6.029,4330,1995,196.507,60.092,13.286
2017-11-25T10:15:59,42.805,6.029,4330,1995,196.485,60.086,13.286
2017-11-25T10:18:59,42.805,6.029,4330,1995,196.415,60.065,13.287
2017-11-25T10:21:59,42.805,6.029,4330,1995,196.370,60.051,13.286
2017-11-25T10:24:59,42.805,6.029,4330,1995,196.382,60.055,13.287
2017-11-25T10:27:59,42.805,6.029,4330,1995,196.335,60.040,13.286
2017-11-25T10:30:59,42.805,6.029,4330,1995,196.228,60.007,13.287
2017-11-25T10:33:59,42.805,6.029,4330,1995,196.149,59.983,13.287
2017-11-25T10:36:59,42.805,6.029,4330,1995,196.217,60.003,13.286
2017-11-25T10:39:59,42.805,6.029,4330,1995,196.273,60.022,13.287
2017-11-25T10:42:59,42.805,6.029,4330,1995,196.362,60.048,13.286
2017-11-25T10:45:59,42.805,6.029,4330,1995,196.448,60.074,13.286
2017-11-25T10:48:59,42.805,6.029,4330,1995,196.471,60.081,13.286
2017-11-25T10:51:59,42.805,6.029,4330,1995,196.538,60.102,13.286
2017-11-25T10:54:59,42.805,6.029,4330,1995,196.512,60.094,13.286
2017-11-25T10:57:59,42.805,6.029,4330,1995,196.422,60.067,13.287
2017-11-25T11:00:59,42.805,6.029,4330,1995,196.415,60.064,13.287
2017-11-25T11:03:59,42.805,6.029,4330,1995,196.449,60.075,13.287
2017-11-25T11:06:59,42.805,6.029,4330,1995,196.411,60.063,13.286
2017-11-25T11:09:59,42.805,6.029,4330,1995,196.332,60.039,13.287
2017-11-25T11:12:59,42.805,6.029,4330,1995,196.274,60.021,13.286
2017-11-25T11:15:59,42.805,6.029,4330,1995,196.354,60.045,13.286
2017-11-25T11:18:59,42.805,6.029,4330,1995,196.373,60.051,13.286
2017-11-25T11:21:59,42.805,6.029,4330,1995,196.353,60.045,13.287
2017-11-25T11:24:59,42.805,6.029,4330,1995,196.371,60.051,13.287
2017-11-25T11:27:59,42.805,6.029,4330,1995,196.264,60.018,13.286
2017-11-25T11:30:59,42.805,6.029,4330,1995,196.236,60.010,13.287
2017-11-25T11:33:59,42.805,6.029,4330,1995,196.223,60.005,13.286
2017-11-25T11:36:59,42.805,6.029,4330,1995,196.295,60.028,13.287
2017-11-25T11:39:59,42.805,6.029,4330,1995,196.273,60.021,13.286
2017-11-25T11:42:59,42.805,6.029,4330,1995,196.348,60.044,13.286
2017-11-25T11:45:59,42.805,6.029,4330,1995,196.225,60.007,13.287
2017-11-25T11:48:59,42.805,6.029,4330,1995,196.276,60.022,13.286
2017-11-25T11:51:59,42.805,6.029,4330,1995,196.306,60.031,13.286
2017-11-25T11:54:59,42.805,6.029,4330,1995,196.191,59.996,13.286
2017-11-25T11:57:59,42.805,6.029,4330,1995,196.114,59.973,13.287
2017-11-25T12:00:59,42.805,6.029,4330,1995,196.180,59.993,13.286
2017-11-25T12:03:59,42.805,6.029,4330,1995,196.179,59.993,13.287
2017-11-25T12:06:59,42.805,6.029,4330,1995,196.276,60.022,13.286
2017-11-25T12:09:59,42.805,6.029,4330,1995,196.256,60.016,13.286
2017-11-25T12:12:59,42.805,6.029,4330,1995,196.292,60.027,13.287
2017-11-25T12:15:59,42.805,6.029,4330,1995,196.291,60.027,13.287
2017-11-25T12:18:58,42.805,6.029,4330,1995,196.285,60.025,13.286
2017-11-25T12:21:58,42.805,6.029,4330,1995,196.304,60.031,13.287
2017-11-25T12:24:58,42.805,6.029,4330,1995,196.295,60.028,13.287
2017-11-25T12:27:58,42.805,6.029,4330,1995,196.296,60.028,13.287
2017-11-25T12:30:58,42.805,6.029,4330,1995,196.273,60.021,13.287
2017-11-25T12:33:58,42.805,6.029,4330,1995,196.312,60.033,13.286
2017-11-25T12:36:58,42.805,6.029,4330,1995,196.341,60.043,13.287
2017-11-25T12:39:58,42.805,6.029,4330,1995,196.309,60.032,13.286
2017-11-25T12:42:58,42.805,6.029,4330,1995,196.258,60.019,13.288
2017-11-25T12:45:58,42.805,6.029,4330,1995,196.318,60.035,13.287
2017-11-25T12:48:58,42.805,6.029,4330,1995,196.282,60.023,13.286
2017-11-25T12:51:58,42.805,6.029,4330,1995,196.322,60.036,13.287
2017-11-25T12:54:58,42.805,6.029,4330,1995,196.490,60.087,13.286
2017-11-25T12:57:58,42.805,6.029,4330,1995,196.500,60.090,13.286
2017-11-25T13:00:58,42.805,6.029,4330,1995,196.602,60.121,13.286
2017-11-25T13:03:58,42.805,6.029,4330,1995,196.601,60.121,13.286
2017-11-25T13:06:58,42.805,6.029,4330,1995,196.670,60.142,13.286
2017-11-25T13:09:58,42.805,6.029,4330,1995,196.584,60.116,13.286
2017-11-25T13:12:58,42.805,6.029,4330,1995,196.648,60.135,13.286
2017-11-25T13:15:58,42.805,6.029,4330,1995,196.661,60.139,13.286
2017-11-25T13:18:58,42.805,6.029,4330,1995,196.615,60.125,13.286
2017-11-25T13:21:58,42.805,6.029,4330,1995,196.509,60.093,13.286
2017-11-25T13:24:58,42.805,6.029,4330,1995,196.554,60.107,13.286
2017-11-25T13:27:58,42.805,6.029,4330,1995,196.598,60.120,13.286
2017-11-25T13:30:58,42.805,6.029,4330,1995,196.674,60.143,13.286
2017-11-25T13:33:58,42.805,6.029,4330,1995,196.636,60.132,13.286
2017-11-25T13:36:58,42.805,6.029,4330,1995,196.675,60.143,13.286
2017-11-25T13:39:58,42.805,6.029,4330,1995,196.692,60.149,13.286
2017-11-25T13:42:58,42.805,6.029,4330,1995,196.786,60.177,13.286
2017-11-25T13:45:58,42.805,6.029,4330,1995,196.779,60.175,13.286
2017-11-25T13:48:58,42.805,6.029,4330,1995,196.835,60.192,13.286
2017-11-25T13:51:58,42.805,6.029,4330,1995,196.891,60.209,13.286
2017-11-25T13:54:58,42.805,6.029,4330,1995,196.975,60.235,13.286
2017-11-25T13:57:58,42.805,6.029,4330,1995,197.017,60.248,13.286
2017-11-25T14:00:58,42.805,6.029,4330,1995,197.039,60.254,13.286
2017-11-25T14:03:58,42.805,6.029,4330,1995,197.041,60.255,13.286
2017-11-25T14:06:58,42.805,6.029,4330,1995,197.041,60.255,13.286
2017-11-25T14:09:58,42.805,6.029,4330,1995,197.082,60.268,13.286
2017-11-25T14:12:58,42.805,6.029,4330,1995,197.067,60.263,13.286
2017-11-25T14:15:58,42.805,6.029,4330,1995,197.139,60.285,13.286
2017-11-25T14:18:58,42.805,6.029,4330,1995,197.091,60.270,13.286
2017-11-25T14:21:58,42.805,6.029,4330,1995,197.181,60.297,13.286
2017-11-25T14:24:58,42.805,6.029,4330,1995,197.242,60.316,13.286
2017-11-25T14:27:58,42.805,6.029,4330,1995,197.342,60.347,13.286
2017-11-25T14:30:58,42.805,6.029,4330,1995,197.306,60.336,13.286
2017-11-25T14:33:58,42.805,6.029,4330,1995,197.385,60.360,13.286
2017-11-25T14:36:58,42.805,6.029,4330,1995,197.378,60.358,13.286
2017-11-25T14:39:58,42.805,6.029,4330,1995,197.368,60.355,13.286
2017-11-25T14:42:58,42.805,6.029,4330,1995,197.389,60.361,13.286
2017-11-25T14:45:58,42.805,6.029,4330,1995,197.397,60.364,13.286
2017-11-25T14:48:58,42.805,6.029,4330,1995,197.495,60.393,13.286
2017-11-25T14:51:58,42.805,6.029,4330,1995,197.450,60.380,13.286
2017-11-25T14:54:58,42.805,6.029,4330,1995,197.441,60.377,13.286
2017-11-25T14:57:58,42.805,6.029,4330,1995,197.472,60.386,13.285
2017-11-25T15:00:58,42.805,6.029,4330,1995,197.481,60.389,13.286
2017-11-25T15:03:58,42.805,6.029,4330,1995,197.480,60.389,13.286
2017-11-25T15:06:58,42.805,6.029,4330,1995,197.471,60.386,13.286
2017-11-25T15:09:58,42.805,6.029,4330,1995,197.448,60.379,13.285
2017-11-25T15:12:58,42.805,6.029,4330,1995,197.494,60.393,13.286
2017-11-25T15:15:58,42.805,6.029,4330,1995,197.524,60.402,13.286
2017-11-25T15:18:58,42.805,6.029,4330,1995,197.513,60.399,13.286
2017-11-25T15:21:58,42.805,6.029,4330,1995,197.535,60.406,13.286
2017-11-25T15:24:58,42.805,6.029,4330,1995,197.531,60.404,13.286
2017-11-25T15:27:58,42.805,6.029,4330,1995,197.573,60.417,13.286
2017-11-25T15:30:58,42.805,6.029,4330,1995,197.553,60.411,13.285
2017-11-25T15:33:58,42.805,6.029,4330,1995,197.558,60.412,13.285
2017-11-25T15:36:58,42.805,6.029,4330,1995,197.535,60.406,13.286
2017-11-25T15:39:58,42.805,6.029,4330,1995,197.607,60.428,13.286
2017-11-25T15:42:58,42.805,6.029,4330,1995,197.601,60.426,13.285
2017-11-25T15:45:58,42.805,6.029,4330,1995,197.582,60.420,13.285
2017-11-25T15:48:58,42.805,6.029,4330,1995,197.597,60.424,13.285
2017-11-25T15:51:58,42.805,6.029,4330,1995,197.632,60.435,13.286
2017-11-25T15:54:58,42.805,6.029,4330,1995,197.630,60.435,13.286
2017-11-25T15:57:58,42.805,6.029,4330,1995,197.661,60.444,13.285
2017-11-25T16:00:58,42.805,6.029,4330,1995,197.677,60.449,13.285
2017-11-25T16:03:58,42.805,6.029,4330,1995,197.661,60.444,13.285
2017-11-25T16:06:58,42.805,6.029,4330,1995,197.698,60.456,13.286
2017-11-25T16:09:58,42.805,6.029,4330,1995,197.748,60.471,13.285
2017-11-25T16:12:58,42.805,6.029,4330,1995,197.708,60.458,13.286
2017-11-25T16:15:58,42.805,6.029,4330,1995,197.686,60.452,13.285
2017-11-25T16:18:58,42.805,6.029,4330,1995,197.702,60.457,13.285
2017-11-25T16:21:58,42.805,6.029,4330,1995,197.770,60.477,13.285
2017-11-25T16:24:58,42.805,6.029,4330,1995,197.681,60.450,13.285
2017-11-25T16:27:58,42.805,6.029,4330,1995,197.649,60.440,13.285
2017-11-25T16:30:58,42.805,6.029,4330,1995,197.638,60.437,13.285
2017-11-25T16:33:58,42.805,6.029,4330,1995,197.761,60.475,13.285
2017-11-25T16:36:58,42.805,6.029,4330,1995,197.711,60.459,13.285
2017-11-25T16:39:58,42.805,6.029,4330,1995,197.730,60.465,13.285
2017-11-25T16:42:58,42.805,6.029,4330,1995,197.724,60.463,13.285
2017-11-25T16:45:58,42.805,6.029,4330,1995,197.722,60.463,13.285
2017-11-25T16:48:58,42.805,6.029,4330,1995,197.810,60.490,13.285
2017-11-25T16:51:58,42.805,6.029,4330,1995,197.787,60.482,13.285
2017-11-25T16:54:58,42.805,6.029,4330,1995,197.810,60.490,13.285
2017-11-25T16:57:58,42.805,6.029,4330,1995,197.788,60.483,13.286
2017-11-25T17:00:58,42.805,6.029,4330,1995,197.797,60.486,13.286
2017-11-25T17:03:58,42.805,6.029,4330,1995,197.783,60.481,13.286
2017-11-25T17:06:58,42.805,6.029,4330,1995,197.791,60.484,13.286
2017-11-25T17:09:58,42.805,6.029,4330,1995,197.864,60.506,13.285
2017-11-25T17:12:58,42.805,6.029,4330,1995,197.820,60.493,13.286
2017-11-25T17:15:58,42.805,6.029,4330,1995,197.847,60.501,13.286
2017-11-25T17:18:58,42.805,6.029,4330,1995,197.919,60.523,13.286
2017-11-25T17:21:58,42.805,6.029,4330,1995,197.799,60.486,13.285
2017-11-25T17:24:58,42.805,6.029,4330,1995,197.820,60.493,13.286
2017-11-25T17:27:58,42.805,6.029,4330,1995,197.863,60.506,13.285
2017-11-25T17:30:58,42.805,6.029,4330,1995,197.803,60.487,13.285
2017-11-25T17:33:58,42.805,6.029,4330,1995,197.884,60.513,13.286
2017-11-25T17:36:58,42.805,6.029,4330,1995,197.891,60.515,13.286
2017-11-25T17:39:58,42.805,6.029,4330,1995,197.912,60.521,13.286
2017-11-25T17:42:58,42.805,6.029,4330,1995,197.899,60.517,13.285
2017-11-25T17:45:58,42.805,6.029,4330,1995,197.957,60.535,13.285
2017-11-25T17:48:58,42.805,6.029,4330,1995,197.979,60.541,13.285
2017-11-25T17:51:58,42.805,6.029,4330,1995,197.886,60.513,13.286
2017-11-25T17:54:58,42.805,6.029,4330,1995,197.944,60.531,13.286
2017-11-25T17:57:58,42.805,6.029,4330,1995,197.932,60.528,13.286
2017-11-25T18:00:58,42.805,6.029,4330,1995,197.969,60.538,13.286
2017-11-25T18:03:58,42.805,6.029,4330,1995,197.924,60.525,13.286
2017-11-25T18:06:58,42.805,6.029,4330,1995,197.939,60.530,13.286